TimeCST,TemperatureF,Dew PointF,Humidity,Sea Level PressureIn,VisibilityMPH,Wind Direction,Wind SpeedMPH,Gust SpeedMPH,PrecipitationIn,Events,Conditions,WindDirDegrees,DateUTC
12:15 AM,30.2,23.0,75,30.45,10.0,Calm,Calm,-,N/A,,Clear,0,2012-11-24 06:15:00
12:35 AM,30.2,21.2,69,30.44,10.0,NNE,4.6,-,N/A,,Clear,30,2012-11-24 06:35:00
12:55 AM,28.4,21.2,74,30.44,10.0,Calm,Calm,-,N/A,,Clear,0,2012-11-24 06:55:00
1:15 AM,28.4,21.2,74,30.42,10.0,Calm,Calm,-,N/A,,Clear,0,2012-11-24 07:15:00
1:35 AM,26.6,21.2,80,30.41,10.0,Calm,Calm,-,N/A,,Clear,0,2012-11-24 07:35:00
1:55 AM,26.6,21.2,80,30.41,10.0,Calm,Calm,-,N/A,,Clear,0,2012-11-24 07:55:00
2:15 AM,26.6,21.2,80,30.42,10.0,Calm,Calm,-,N/A,,Clear,0,2012-11-24 08:15:00
2:35 AM,26.6,21.2,80,30.41,10.0,Calm,Calm,-,N/A,,Clear,0,2012-11-24 08:35:00
2:55 AM,26.6,21.2,80,30.40,10.0,Calm,Calm,-,N/A,,Clear,0,2012-11-24 08:55:00
3:15 AM,26.6,21.2,80,30.40,10.0,Calm,Calm,-,N/A,,Clear,0,2012-11-24 09:15:00
3:35 AM,24.8,21.2,86,30.41,10.0,WSW,3.5,-,N/A,,Clear,250,2012-11-24 09:35:00
3:55 AM,26.6,21.2,80,30.41,10.0,WSW,3.5,-,N/A,,Clear,250,2012-11-24 09:55:00
4:15 AM,23.0,21.2,93,30.40,10.0,WSW,4.6,-,N/A,,Clear,250,2012-11-24 10:15:00
4:35 AM,24.8,21.2,86,30.40,10.0,Calm,Calm,-,N/A,,Clear,0,2012-11-24 10:35:00
4:55 AM,24.8,21.2,86,30.39,10.0,Calm,Calm,-,N/A,,Clear,0,2012-11-24 10:55:00
5:15 AM,24.8,21.2,86,30.39,10.0,Calm,Calm,-,N/A,,Clear,0,2012-11-24 11:15:00
5:35 AM,24.8,21.2,86,30.38,10.0,Calm,Calm,-,N/A,,Clear,0,2012-11-24 11:35:00
5:55 AM,26.6,21.2,80,30.39,10.0,Calm,Calm,-,N/A,,Clear,0,2012-11-24 11:55:00
6:15 AM,23.0,21.2,93,30.39,10.0,Calm,Calm,-,N/A,,Clear,0,2012-11-24 12:15:00
6:35 AM,23.0,21.2,93,30.38,10.0,Calm,Calm,-,N/A,,Clear,0,2012-11-24 12:35:00
6:55 AM,23.0,21.2,93,30.38,10.0,North,3.5,-,N/A,,Clear,350,2012-11-24 12:55:00
7:15 AM,23.0,21.2,93,30.37,10.0,Calm,Calm,-,N/A,,Clear,0,2012-11-24 13:15:00
7:35 AM,23.0,21.2,93,30.37,10.0,Calm,Calm,-,N/A,,Clear,0,2012-11-24 13:35:00
7:55 AM,24.8,21.2,86,30.37,10.0,Calm,Calm,-,N/A,,Clear,0,2012-11-24 13:55:00
8:15 AM,26.6,23.0,86,30.37,10.0,Calm,Calm,-,N/A,,Clear,0,2012-11-24 14:15:00
8:35 AM,28.4,23.0,80,30.36,10.0,Calm,Calm,-,N/A,,Clear,0,2012-11-24 14:35:00
8:55 AM,32.0,23.0,69,30.36,10.0,SSE,3.5,-,N/A,,Clear,160,2012-11-24 14:55:00
9:15 AM,33.8,23.0,65,30.36,10.0,South,4.6,-,N/A,,Clear,170,2012-11-24 15:15:00
9:35 AM,33.8,21.2,60,30.35,10.0,South,8.1,-,N/A,,Clear,170,2012-11-24 15:35:00
9:55 AM,35.6,23.0,60,30.34,10.0,South,6.9,-,N/A,,Clear,170,2012-11-24 15:55:00
10:15 AM,37.4,21.2,52,30.33,10.0,South,9.2,-,N/A,,Clear,180,2012-11-24 16:15:00
10:35 AM,39.2,19.4,45,30.32,10.0,South,12.7,-,N/A,,Clear,170,2012-11-24 16:35:00
10:55 AM,41.0,19.4,42,30.32,10.0,South,10.4,-,N/A,,Clear,180,2012-11-24 16:55:00
11:15 AM,41.0,19.4,42,30.30,10.0,SSE,11.5,-,N/A,,Clear,160,2012-11-24 17:15:00
11:35 AM,42.8,21.2,42,30.28,10.0,South,11.5,-,N/A,,Clear,180,2012-11-24 17:35:00
11:55 AM,42.8,21.2,42,30.25,10.0,South,13.8,-,N/A,,Clear,180,2012-11-24 17:55:00
12:15 PM,44.6,21.2,39,30.23,10.0,South,13.8,-,N/A,,Clear,180,2012-11-24 18:15:00
12:35 PM,44.6,21.2,39,30.21,10.0,South,15.0,-,N/A,,Clear,190,2012-11-24 18:35:00
12:55 PM,46.4,21.2,37,30.19,10.0,South,15.0,-,N/A,,Clear,180,2012-11-24 18:55:00
1:15 PM,46.4,21.2,37,30.18,10.0,South,12.7,-,N/A,,Clear,190,2012-11-24 19:15:00
1:35 PM,48.2,21.2,34,30.16,10.0,South,15.0,18.4,N/A,,Clear,170,2012-11-24 19:35:00
1:55 PM,50.0,21.2,32,30.14,10.0,South,17.3,-,N/A,,Clear,170,2012-11-24 19:55:00
2:15 PM,50.0,21.2,32,30.13,10.0,South,15.0,20.7,N/A,,Clear,170,2012-11-24 20:15:00
2:35 PM,50.0,23.0,35,30.11,10.0,South,16.1,-,N/A,,Clear,170,2012-11-24 20:35:00
2:55 PM,51.8,21.2,30,30.10,10.0,South,17.3,-,N/A,,Clear,180,2012-11-24 20:55:00
3:15 PM,51.8,21.2,30,30.09,10.0,South,19.6,-,N/A,,Clear,180,2012-11-24 21:15:00
3:35 PM,50.0,23.0,35,30.08,10.0,South,13.8,-,N/A,,Clear,170,2012-11-24 21:35:00
3:55 PM,50.0,23.0,35,30.06,10.0,South,17.3,20.7,N/A,,Clear,170,2012-11-24 21:55:00
4:15 PM,50.0,21.2,32,30.06,10.0,South,19.6,-,N/A,,Clear,180,2012-11-24 22:15:00
4:35 PM,50.0,21.2,32,30.04,10.0,South,19.6,25.3,N/A,,Clear,180,2012-11-24 22:35:00
4:55 PM,48.2,21.2,34,30.04,10.0,South,13.8,-,N/A,,Clear,180,2012-11-24 22:55:00
5:15 PM,46.4,21.2,37,30.03,10.0,South,13.8,-,N/A,,Clear,180,2012-11-24 23:15:00
5:35 PM,44.6,23.0,43,30.03,10.0,South,10.4,-,N/A,,Clear,170,2012-11-24 23:35:00
5:55 PM,44.6,23.0,43,30.03,10.0,South,9.2,-,N/A,,Clear,170,2012-11-24 23:55:00
6:15 PM,42.8,23.0,46,30.03,10.0,South,10.4,-,N/A,,Clear,170,2012-11-25 00:15:00
6:35 PM,42.8,23.0,46,30.03,10.0,South,10.4,-,N/A,,Clear,180,2012-11-25 00:35:00
6:55 PM,42.8,24.8,49,30.02,10.0,South,10.4,-,N/A,,Clear,180,2012-11-25 00:55:00
7:15 PM,42.8,24.8,49,30.02,10.0,South,11.5,-,N/A,,Clear,180,2012-11-25 01:15:00
7:35 PM,44.6,24.8,46,30.02,10.0,South,12.7,-,N/A,,Clear,190,2012-11-25 01:35:00
7:55 PM,42.8,24.8,49,30.01,10.0,South,12.7,-,N/A,,Clear,180,2012-11-25 01:55:00
8:15 PM,42.8,24.8,49,30.01,10.0,South,13.8,-,N/A,,Clear,180,2012-11-25 02:15:00
8:35 PM,42.8,24.8,49,30.00,10.0,South,12.7,-,N/A,,Clear,190,2012-11-25 02:35:00
8:55 PM,42.8,26.6,53,29.99,10.0,South,13.8,-,N/A,,Clear,190,2012-11-25 02:55:00
9:15 PM,42.8,26.6,53,29.99,10.0,South,13.8,-,N/A,,Clear,190,2012-11-25 03:15:00
9:35 PM,42.8,24.8,49,29.98,10.0,South,13.8,-,N/A,,Clear,180,2012-11-25 03:35:00
9:55 PM,42.8,24.8,49,29.98,10.0,South,13.8,19.6,N/A,,Clear,190,2012-11-25 03:55:00
10:15 PM,42.8,24.8,49,29.98,10.0,South,12.7,-,N/A,,Clear,190,2012-11-25 04:15:00
10:35 PM,42.8,23.0,46,29.98,10.0,South,13.8,-,N/A,,Clear,190,2012-11-25 04:35:00
10:55 PM,42.8,23.0,46,29.99,10.0,South,12.7,-,N/A,,Clear,190,2012-11-25 04:55:00
11:15 PM,42.8,23.0,46,29.98,10.0,South,12.7,-,N/A,,Clear,190,2012-11-25 05:15:00
11:35 PM,42.8,23.0,46,29.98,10.0,South,12.7,-,N/A,,Clear,190,2012-11-25 05:35:00
11:55 PM,41.0,23.0,49,29.98,10.0,South,10.4,-,N/A,,Clear,190,2012-11-25 05:55:00